Regional Weather Roundup
Issued by NWS Mt. Holly, NJ

Home | Current Version | Previous Version | Text Only | Print | Product List | Glossary On
Versions: 1 2 3 4 5 6 7 8 9 10 11 12 13 14 15 16 17 18 19 20 21 22 23 24 25 26 27 28
000
ASUS41 KPHI 210012
RWRPHI

REGIONAL WEATHER ROUNDUP
NATIONAL WEATHER SERVICE MOUNT HOLLY NJ
800 PM EDT WED SEP 20 2017

NOTE:  "FAIR" INDICATES FEW OR NO CLOUDS BELOW 12,000 FEET WITH NO
SIGNIFICANT WEATHER AND/OR OBSTRUCTIONS TO VISIBILITY.

 * = STATION DOES NOT REPORT PRECIPITATION (E.G. RAIN, SNOW, ETC.)
        OR FOG.

NJZ015>026-210100-
SOUTHERN NEW JERSEY

CITY           SKY/WX    TMP DP  RH WIND       PRES   REMARKS
POMONA         CLOUDY    74  68  81 NW5       29.92R
6HR MIN TEMP:  74; 6HR MAX TEMP:  84;

WILDWOOD*      PTCLDY    75  69  81 NE7       29.92R
MILLVILLE      CLEAR     77  69  76 N3        29.92R
WRIGHTSTOWN    CLOUDY    74  64  70 N6        29.89S
MOUNT HOLLY    MOCLDY    75  68  78 CALM      29.92R
TRENTON        PTCLDY    77  67  71 CALM      29.92R
6HR MIN TEMP:  76; 6HR MAX TEMP:  83;


$$
NJZ001>014-210100-
NORTHERN NEW JERSEY

CITY           SKY/WX    TMP DP  RH WIND       PRES   REMARKS
SUSSEX         PTCLDY    70  67  90 CALM      29.95R
ANDOVER*         N/A     69  66  90 CALM      29.95R
MORRISTOWN     PTCLDY    70  66  88 CALM      29.93R
NEWARK         CLOUDY    78  64  61 N9        29.91R
TETERBORO      CLOUDY    77  64  64 N9        29.90R
CALDWELL       PTCLDY    73  67  81 CALM      29.93R
ALLAIRE*       PTCLDY    74  65  73 NW5       29.92R
TOMS RIVER*    PTCLDY    73  66  78 NW6       29.92R

$$
PAZ043-044-047-054-055-060>062-066>071-210100-
EASTERN PENNSYLVANIA

CITY           SKY/WX    TMP DP  RH WIND       PRES   REMARKS
PHILADELPHIA   PTCLDY    80  64  58 VRB6      29.92R
6HR MIN TEMP:  78; 6HR MAX TEMP:  86;

NORTH PHILA    CLOUDY    78  66  66 NE6       29.93S
BLUE BELL*     PTCLDY    68  64  88 CALM      29.95R
DOYLESTOWN     CLEAR     73  65  75 CALM      29.94R
QUAKERTOWN*    MOCLDY    73  66  78 CALM      29.96R
PERKASIE*      MOCLDY    68  68 100 CALM      29.96R
POTTSTOWN      PTCLDY    73  66  78 NE3       29.96R
LANCASTER      CLEAR     74  65  73 NW6       29.95R
COATESVILLE    CLEAR     73  64  73 NW5       29.97R
READING        CLEAR     75  66  73 N3        29.93R
6HR MIN TEMP:  74; 6HR MAX TEMP:  87;

ALLENTOWN      PTCLDY    74  61  63 CALM      29.94R
6HR MIN TEMP:  73; 6HR MAX TEMP:  87;

MOUNT POCONO   CLEAR     69  60  73 N6        30.02R
6HR MIN TEMP:  69; 6HR MAX TEMP:  80;

HAZLETON         N/A     64  52  63 CALM      30.04S
LEHIGHTON      FAIR      68  63  83 CALM      29.96S
WILKES BARRE   CLEAR     73  61  65 E3        29.98R

$$
DEZALL-MDZ008-012-015-019-020-210100-
DELAWARE AND EASTERN MARYLAND

CITY           SKY/WX    TMP DP  RH WIND       PRES   REMARKS
WILMINGTON     MOCLDY    77  65  66 N7        29.93R
6HR MIN TEMP:  76; 6HR MAX TEMP:  89;

DOVER          PTCLDY    76  76 100 CALM      29.92R
GEORGETOWN     CLEAR     77  69  76 CALM      29.92R
6HR MIN TEMP:  77; 6HR MAX TEMP:  85;

EASTON         CLEAR     73  68  83 CALM      29.97R
ABERDEEN       CLEAR     75  65  69 CALM      29.93R
PATUXENT       PTCLDY    71  66  84 CALM      29.93R
OCEAN CITY     CLEAR     74  70  87 W5        29.92R
WALLOPS ISLAND CLEAR     75  69  81 W5        29.93R
CAMBRIDGE      CLEAR     72  70  94 CALM      29.93R
SALISBURY      CLEAR     73  69  87 CALM      29.92R

$$
PAZ001-021-NYZ056-072-MDZ011-DCZ001-210100-
OTHER NEARBY LOCATIONS

CITY           SKY/WX    TMP DP  RH WIND       PRES   REMARKS
HARRISBURG     PTCLDY    71  65  81 NW5       29.95R
STATE COLLEGE  CLEAR     73  59  60 CALM      30.01R
WILLIAMSPORT   CLEAR     71  63  75 W3        29.97R
BINGHAMTON     CLEAR     70  58  65 N7        30.02S
NEW YORK CITY  PTCLDY    77  63  61 MISG      29.94R
BALTIMORE      PTCLDY    79  61  53 VRB3      29.94R
WASHINGTON DC  PTCLDY    80  64  58 NW7       29.95R

$$




USA.gov is the U.S. government's official web portal to all federal, state and local government web resources and services.